Time,TemperatureF,DewpointF,PressureIn,WindDirection,WindDirectionDegrees,WindSpeedMPH,WindSpeedGustMPH,Humidity,HourlyPrecipIn,Conditions,Clouds,dailyrainin,SoftwareType,DateUTC
2013-03-03 00:22:00,15.0,-99.9,30.17,NW,304,5.0,9.0,-999,-99.99,,,-99.99,,2013-03-03 05:22:00,
2013-03-03 00:42:00,15.0,-99.9,30.17,NW,308,4.0,11.0,-999,-99.99,,,-99.99,,2013-03-03 05:42:00,
2013-03-03 01:52:00,15.0,-99.9,30.16,WNW,301,5.0,8.0,-999,-99.99,,,-99.99,,2013-03-03 06:52:00,
2013-03-03 02:11:00,14.0,-99.9,30.15,NW,311,4.0,8.0,-999,-99.99,,,-99.99,,2013-03-03 07:11:00,
2013-03-03 02:42:00,15.0,-99.9,30.15,NW,309,6.0,11.0,-999,-99.99,,,-99.99,,2013-03-03 07:42:00,
2013-03-03 03:21:00,15.0,-99.9,30.15,NW,306,4.0,9.0,-999,-99.99,,,-99.99,,2013-03-03 08:21:00,
2013-03-03 03:54:00,16.0,-99.9,30.14,NW,311,6.0,9.0,-999,-99.99,,,-99.99,,2013-03-03 08:54:00,
2013-03-03 04:12:00,16.0,-99.9,30.14,NW,308,6.0,10.0,-999,-99.99,,,-99.99,,2013-03-03 09:12:00,
2013-03-03 04:52:00,16.0,-99.9,30.14,NW,314,6.0,11.0,-999,-99.99,,,-99.99,,2013-03-03 09:52:00,
2013-03-03 05:22:00,16.0,-99.9,30.14,NW,320,6.0,10.0,-999,-99.99,,,-99.99,,2013-03-03 10:22:00,
2013-03-03 05:42:00,16.0,-99.9,30.14,NW,312,5.0,9.0,-999,-99.99,,,-99.99,,2013-03-03 10:42:00,
2013-03-03 06:53:00,16.0,-99.9,30.14,NW,312,7.0,10.0,-999,-99.99,,,-99.99,,2013-03-03 11:53:00,
2013-03-03 07:11:00,17.0,-99.9,30.15,NW,311,7.0,11.0,-999,-99.99,,,-99.99,,2013-03-03 12:11:00,
2013-03-03 08:22:00,18.0,-99.9,30.15,NNW,330,5.0,15.0,-999,-99.99,,,-99.99,,2013-03-03 13:22:00,
2013-03-03 08:42:00,20.0,-99.9,30.16,NNW,332,7.0,13.0,-999,-99.99,,,-99.99,,2013-03-03 13:42:00,
2013-03-03 09:11:00,20.0,-99.9,30.15,NNW,347,10.0,16.0,-999,-99.99,,,-99.99,,2013-03-03 14:11:00,
2013-03-03 09:52:00,20.0,-99.9,30.16,North,352,10.0,17.0,-999,-99.99,,,-99.99,,2013-03-03 14:52:00,
2013-03-03 10:22:00,20.0,-99.9,30.16,NNW,342,12.0,18.0,-999,-99.99,,,-99.99,,2013-03-03 15:22:00,
2013-03-03 10:42:00,20.0,-99.9,30.16,NNW,343,11.0,19.0,-999,-99.99,,,-99.99,,2013-03-03 15:42:00,
2013-03-03 11:52:00,21.0,-99.9,30.16,NNW,347,10.0,15.0,-999,-99.99,,,-99.99,,2013-03-03 16:52:00,
2013-03-03 12:12:00,20.0,-99.9,30.16,North,351,10.0,15.0,-999,-99.99,,,-99.99,,2013-03-03 17:12:00,
2013-03-03 13:22:00,21.0,-99.9,30.15,North,354,11.0,17.0,-999,-99.99,,,-99.99,,2013-03-03 18:22:00,
2013-03-03 13:42:00,21.0,-99.9,30.14,NNW,344,11.0,15.0,-999,-99.99,,,-99.99,,2013-03-03 18:42:00,
2013-03-03 14:52:00,21.0,-99.9,30.13,North,353,12.0,16.0,-999,-99.99,,,-99.99,,2013-03-03 19:52:00,
2013-03-03 15:22:00,21.0,-99.9,30.13,North,356,6.0,14.0,-999,-99.99,,,-99.99,,2013-03-03 20:22:00,
2013-03-03 15:43:00,21.0,-99.9,30.13,NNW,348,9.0,13.0,-999,-99.99,,,-99.99,,2013-03-03 20:43:00,
2013-03-03 16:22:00,20.0,-99.9,30.13,NNW,348,9.0,14.0,-999,-99.99,,,-99.99,,2013-03-03 21:22:00,
2013-03-03 16:52:00,20.0,-99.9,30.13,NNW,345,8.0,15.0,-999,-99.99,,,-99.99,,2013-03-03 21:52:00,
2013-03-03 17:12:00,20.0,-99.9,30.14,North,356,11.0,15.0,-999,-99.99,,,-99.99,,2013-03-03 22:12:00,
2013-03-03 18:22:00,19.0,-99.9,30.14,NNW,346,8.0,16.0,-999,-99.99,,,-99.99,,2013-03-03 23:22:00,
2013-03-03 18:42:00,19.0,-99.9,30.14,NNW,335,6.0,11.0,-999,-99.99,,,-99.99,,2013-03-03 23:42:00,
2013-03-03 19:52:00,18.0,-99.9,30.14,North,358,5.0,11.0,-999,-99.99,,,-99.99,,2013-03-04 00:52:00,
2013-03-03 20:12:00,19.0,-99.9,30.14,NNW,329,6.0,11.0,-999,-99.99,,,-99.99,,2013-03-04 01:12:00,
2013-03-03 20:42:00,19.0,-99.9,30.14,NNW,342,5.0,9.0,-999,-99.99,,,-99.99,,2013-03-04 01:42:00,
2013-03-03 21:22:00,19.0,-99.9,30.14,NNW,341,5.0,10.0,-999,-99.99,,,-99.99,,2013-03-04 02:22:00,
2013-03-03 21:53:00,18.0,-99.9,30.14,WNW,301,2.0,5.0,-999,-99.99,,,-99.99,,2013-03-04 02:53:00,
2013-03-03 22:11:00,18.0,-99.9,30.14,WNW,294,3.0,5.0,-999,-99.99,,,-99.99,,2013-03-04 03:11:00,
2013-03-03 22:53:00,19.0,-99.9,30.14,NW,308,5.0,8.0,-999,-99.99,,,-99.99,,2013-03-04 03:53:00,
2013-03-03 23:22:00,18.0,-99.9,30.14,WNW,297,4.0,7.0,-999,-99.99,,,-99.99,,2013-03-04 04:22:00,
2013-03-03 23:42:00,19.0,-99.9,30.14,WNW,296,3.0,6.0,-999,-99.99,,,-99.99,,2013-03-04 04:42:00,